Regional Weather Roundup
Issued by NWS Tiyan, Guam

Home | Current Version | Previous Version | Text Only | Print | Product List | Glossary On
Versions: 1 2 3 4 5 6 7 8 9 10 11 12 13 14 15 16 17 18 19 20 21 22 23 24 25 26 27 28
000
ASGM40 PGUM 100012
RWRGUM
WEATHER ROUNDUP FOR THE MARIANAS
NATIONAL WEATHER SERVICE TIYAN GU
1000 AM CHST SAT DEC 10 2016

GUZ001>004-100100-
MARIANA ISLANDS-

CITY           SKY/WX    TMP DP  RH WIND       PRES   REMARKS
GUAM AIRPORT   MOSUNNY   84  75  74 E10       29.89S HX  92
ANDERSEN AFB   MOSUNNY   82  75  78 E15       29.90S
ROTA AIRPORT   MOSUNNY   82  75  78 SE10      29.89F
TINIAN AP      PTSUNNY   82  77  83 E7        29.87F HX  91
SAIPAN AP      MOSUNNY   82  77  83 E9        29.89S HX  91

$$





USA.gov is the U.S. government's official web portal to all federal, state and local government web resources and services.